PA3EUZ Weather Reports


time (UTC)temp
C
wind
direction
speed
KPH
gust
KPH
rain 1hr
cm
rain 24hr
cm
rain mn
cm
humidity
%
barometer
mb
20260506213017 11 0.0 0.0 0.00 0.00 0.00 73 1012.6
20260506211516 11 0.0 0.0 0.00 0.00 0.00 71 1012.5
20260506210037 11 0.0 0.0 0.00 0.00 0.00 70 1012.4
20260506204516 11 0.0 4.8 0.00 0.00 0.00 69 1012.2
20260506203036 11 0.0 0.0 0.00 0.00 0.00 69 1012.1
20260506201516 11 0.0 0.0 0.00 0.00 0.00 68 1012.1
20260506200016 11 0.0 0.0 0.00 0.00 0.00 67 1012.0
20260506194536 11 0.0 0.0 0.00 0.00 0.00 66 1011.8
20260506193017 12 0.0 0.0 0.00 0.00 0.00 66 1011.7
20260506191556 12 0.0 0.0 0.00 0.00 0.00 64 1011.6
20260506190017 12 0.0 9.7 0.00 0.00 0.00 64 1011.4
20260506184516 12 113 1.6 11.3 0.00 0.00 0.00 65 1011.2
20260506183016 12 90 3.2 14.5 0.00 0.00 0.00 64 1011.1
20260506181536 12 90 3.2 14.5 0.00 0.00 0.00 64 1011.0
20260506180016 12 68 3.2 14.5 0.00 0.00 0.00 63 1010.7
20260506174516 12 68 3.2 12.9 0.00 0.00 0.00 62 1010.6
20260506173036 13 68 3.2 20.9 0.00 0.00 0.00 61 1010.4
20260506171516 13 68 4.8 22.5 0.00 0.00 0.00 59 1010.2
20260506170016 13 45 4.8 16.1 0.00 0.00 0.00 58 1010.1
20260506164516 14 45 6.4 19.3 0.00 0.00 0.00 56 1010.0
20260506163016 15 68 8.0 22.5 0.00 0.00 0.00 53 1009.9
20260506161536 15 68 4.8 17.7 0.00 0.00 0.00 53 1009.8
20260506160016 14 68 4.8 16.1 0.00 0.00 0.00 54 1009.8
20260506154516 14 68 3.2 16.1 0.00 0.00 0.00 56 1009.8
20260506153016 14 45 3.2 12.9 0.00 0.00 0.00 57 1009.8
20260506151516 15 45 3.2 16.1 0.00 0.00 0.00 59 1009.7
20260506150036 15 68 3.2 19.3 0.00 0.00 0.00 58 1009.7
20260506144516 15 45 3.2 19.3 0.00 0.00 0.00 59 1009.5
20260506143016 15 0 4.8 16.1 0.00 0.00 0.00 58 1009.5
20260506141516 14 23 1.6 12.9 0.00 0.00 0.00 62 1009.6
20260506140016 14 23 1.6 11.3 0.00 0.00 0.00 63 1009.7
20260506134536 13 23 3.2 11.3 0.00 0.00 0.00 62 1009.6
20260506133016 13 23 3.2 14.5 0.00 0.00 0.00 61 1009.6
20260506131516 14 45 4.8 14.5 0.00 0.00 0.00 62 1009.6
20260506130036 14 23 4.8 17.7 0.00 0.00 0.00 61 1009.5
20260506124516 15 0 3.2 16.1 0.00 0.00 0.00 61 1009.3
20260506123016 15 23 3.2 14.5 0.00 0.00 0.00 63 1009.2
20260506121516 15 23 3.2 12.9 0.00 0.00 0.00 60 1009.3
20260506120016 15 23 3.2 11.3 0.00 0.00 0.00 60 1009.2
20260506114516 15 0 4.8 19.3 0.00 0.00 0.00 58 1009.2
20260506113016 15 23 4.8 14.5 0.00 0.00 0.00 62 1009.2
20260506111516 14 45 3.2 17.7 0.00 0.00 0.00 67 1009.2
20260506110016 14 23 3.2 14.5 0.00 0.00 0.00 66 1009.2
20260506104516 14 23 3.2 14.5 0.00 0.00 0.00 68 1009.2
20260506103016 14 23 4.8 16.1 0.00 0.00 0.00 66 1009.2
20260506101516 14 0 1.6 9.7 0.00 0.00 0.00 70 1009.2
20260506100016 13 23 4.8 12.9 0.00 0.00 0.00 70 1009.1
20260506094518 13 23 1.6 9.7 0.00 0.00 0.00 76 1009.1
20260506093018 13 0 3.2 9.7 0.00 0.00 0.00 78 1009.1
20260506091518 12 0 1.6 11.3 0.00 0.00 0.00 80 1009.2
20260506090018 12 0 3.2 9.7 0.00 0.00 0.00 81 1009.0
20260506084518 12 0 3.2 11.3 0.00 0.00 0.00 80 1008.9
20260506083018 12 23 3.2 14.5 0.00 0.00 0.00 81 1008.9
20260506081518 12 23 3.2 12.9 0.00 0.00 0.00 83 1008.8
20260506073018 10 0 1.6 9.7 0.00 0.00 0.00 92 1008.7
20260506071518 10 0.0 4.8 0.00 0.00 0.00 93 1008.7
20260506061538 9 0.0 4.8 0.00 0.00 0.00 92 1008.5
20260506044517 9 23 1.6 8.0 0.00 0.00 0.00 87 1008.4
20260506043017 9 23 1.6 12.9 0.00 0.00 0.00 86 1008.4
20260506041518 9 23 3.2 12.9 0.00 0.00 0.00 85 1008.3
20260506040018 9 0 1.6 12.9 0.00 0.00 0.00 85 1008.4
20260506034538 9 0 3.2 9.7 0.00 0.00 0.00 86 1008.3
20260506033018 9 23 3.2 17.7 0.00 0.00 0.00 87 1008.5
20260506031518 8 0 1.6 8.0 0.00 0.00 0.00 88 1008.5
20260506030017 8 0.0 8.0 0.00 0.00 0.00 88 1008.6
20260506024518 8 0.0 8.0 0.00 0.00 0.00 88 1008.7
20260506023018 8 0.0 4.8 0.00 0.00 0.00 87 1008.7
20260506021517 8 0.0 6.4 0.00 0.00 0.00 87 1008.8
20260506020018 8 0.0 4.8 0.00 0.00 0.00 87 1008.8
20260506014518 8 0.0 3.2 0.00 0.00 0.00 86 1008.9
20260506013018 8 0.0 4.8 0.00 0.00 0.00 86 1008.9
20260506011517 8 0.0 4.8 0.00 0.00 0.00 85 1009.0
20260506010018 8 0.0 3.2 0.00 0.00 0.00 85 1009.0
20260506004537 8 0.0 4.8 0.00 0.00 0.00 84 1009.2
20260506003018 8 0.0 6.4 0.00 0.00 0.00 84 1009.3
20260506001557 8 23 1.6 11.3 0.00 0.00 0.00 83 1009.3
20260506000018 8 23 1.6 8.0 0.00 0.00 0.00 84 1009.5
20260505234543 8 23 1.6 11.3 0.00 0.00 0.00 84 1009.5
20260505233018 8 0.0 8.0 0.00 0.00 0.00 84 1009.5
20260505231517 9 0.0 9.7 0.00 0.00 0.00 84 1009.5
20260505230037 9 0.0 6.4 0.00 0.00 0.00 84 1009.6
20260505224517 9 0.0 8.0 0.00 0.00 0.00 83 1009.6
20260505223018 10 23 1.6 9.7 0.00 0.00 0.00 83 1009.7
20260505221517 10 23 1.6 8.0 0.00 0.00 0.00 82 1009.7
20260505220018 10 23 1.6 9.7 0.00 0.00 0.00 81 1009.7
20260505214516 10 23 1.6 9.7 0.00 0.00 0.00 80 1009.6